Vertical_Velocity
-6 -1 3 5 6 6 5 3 5 7 10 15 8 4 2 0 -2 -4 -5 -4 -3 -3 -3 -1 -0 0 1 2 2 2 0 -0 -1 -1 -1 2 4 3 2 1 5 4 1 -0 3 5 6 6 4 2 0 0 1 2 1 -1 -0 -0 -0 -0 -1 -2 -2 -1 -1 -1 -2 -2 -2
-5 0 4 7 7 6 5 3 4 5 7 11 9 5 1 -0 -2 -2 -1 -1 -0 -0 0 0 1 2 3 3 2 2 1 1 -0 -1 -1 1 3 3 3 3 3 2 1 1 5 6 7 7 7 7 6 6 7 6 5 1 1 1 0 -0 -1 -1 -1 -1 -1 -1 -1 -2 -2
-2 2 5 7 6 6 5 4 3 4 4 4 4 6 8 10 11 13 12 7 7 5 3 1 1 2 3 4 3 2 2 1 0 -1 -1 -1 0 1 2 1 1 0 -0 1 5 6 7 7 7 6 7 7 7 5 4 4 2 2 1 -1 -1 -0 -0 -1 -1 -1 -1 -2 -2
1 3 5 6 7 6 5 3 3 2 1 -0 -0 8 17 20 20 19 17 12 7 3 1 -1 0 2 3 3 2 2 1 1 -0 -1 -1 -1 -0 1 1 1 1 0 0 4 6 6 4 3 2 1 2 2 5 8 9 6 3 2 1 -1 0 1 0 -1 -1 -1 -1 -2 -2
4 5 6 6 6 5 3 2 1 -1 -3 -4 1 9 15 15 14 14 13 9 2 -1 -2 -0 1 2 2 3 2 1 1 0 -0 -1 -1 -1 0 0 1 1 2 0 0 2 3 2 0 -1 -1 -0 -0 -0 3 5 4 1 1 0 -1 -1 1 1 1 -0 -1 -1 -1 -2 -2
6 7 7 7 6 4 1 -1 -2 -4 -5 -4 0 3 5 5 4 3 2 -1 1 -1 -2 2 2 3 3 2 2 1 0 -1 -0 -1 -1 -0 0 0 0 -0 0 0 0 1 1 1 -0 -0 0 0 -0 -1 -1 -1 -1 1 0 -1 -1 -1 0 0 1 -0 -1 -1 -1 -1 -1
8 9 8 7 5 2 -1 -3 -4 -5 -5 -3 -1 1 2 3 2 1 -2 -5 -2 2 4 2 3 4 4 2 1 0 -0 -1 0 -0 -0 1 1 0 -0 -1 -0 0 1 1 1 0 0 0 0 0 -1 -2 -2 -2 -1 0 -0 -1 -1 -0 -0 0 0 -1 -1 -1 0 -0 -0
8 9 9 7 5 3 1 0 -1 -2 -3 -2 -0 1 1 1 1 -1 -2 -2 6 10 10 6 8 5 2 0 0 -0 -1 -1 -1 -0 0 2 1 0 -1 -1 0 1 1 1 1 0 -0 -0 2 3 3 -1 -1 -1 -0 1 0 -0 -0 0 -0 -0 -0 -0 -1 -0 0 0 -0
6 7 8 7 5 4 5 5 2 0 -1 -1 1 2 2 1 -2 -3 -0 8 13 14 13 12 8 3 1 4 2 -0 -2 -2 -1 -0 1 2 1 0 -1 0 1 1 1 1 0 0 1 5 7 5 2 -1 -1 1 2 2 1 0 0 0 0 -0 -1 -1 0 0 0 0 -1
3 4 5 6 4 4 4 4 2 1 2 3 3 3 1 -1 -4 -2 5 14 15 14 13 12 5 4 6 10 3 -1 -2 -2 -0 1 2 2 1 0 -0 0 1 1 1 0 1 3 6 8 6 2 -0 -1 0 2 3 1 0 0 0 0 0 -1 -1 -1 0 0 0 -1 -2
-1 0 1 3 3 3 3 3 2 2 3 5 3 0 -2 -4 -5 0 8 14 17 18 17 16 11 11 12 9 1 -2 -2 -1 1 2 2 1 0 0 0 1 1 2 3 4 3 4 6 7 3 1 -0 -1 -0 1 1 -0 0 0 0 -1 -0 -0 -1 -1 -0 -0 -1 -2 -3
-3 -3 -2 0 2 3 4 4 4 3 3 3 0 -2 -4 -5 -5 2 9 13 15 15 16 19 19 17 13 6 -0 -2 -1 1 2 2 2 0 -0 0 1 1 2 3 5 4 2 3 5 6 2 0 -1 -1 -0 -0 -0 -1 0 0 1 1 0 0 -0 -1 -1 -1 -2 -3 -3
-5 -5 -3 -1 2 4 6 5 4 4 3 1 -1 -3 -4 -6 -2 5 11 12 9 9 12 21 20 17 10 1 -1 -1 1 2 2 1 1 -0 -0 0 1 1 2 3 3 1 1 4 6 4 1 -0 -0 0 0 0 -0 -0 0 1 4 5 2 0 -0 -1 -1 -2 -3 -3 -3
-5 -5 -3 -0 3 5 6 5 4 3 2 -1 -3 -4 -4 -4 3 10 13 10 7 10 17 25 15 9 4 -2 -1 -0 1 1 1 1 0 -0 0 1 1 1 1 1 1 1 2 3 3 1 1 1 1 1 1 0 -0 0 2 5 6 5 1 -0 -0 -1 -1 -2 -2 -2 -1
-5 -4 -2 1 3 4 5 4 3 1 -1 -3 -4 -3 -1 4 10 12 12 11 9 15 22 23 9 3 -0 -2 -1 0 0 0 0 0 0 0 0 1 0 0 1 1 2 2 3 2 2 2 1 1 1 1 0 0 1 3 6 8 8 4 1 0 -1 -1 -2 -2 -1 -0 0
-3 -2 -0 2 3 3 3 2 -0 -2 -3 -4 -3 1 6 11 10 9 9 12 12 15 16 10 3 -0 -1 -1 -0 -0 0 0 0 1 1 1 1 0 0 0 2 2 2 2 1 0 0 0 0 0 0 0 0 2 5 8 8 7 5 1 1 -0 -1 -2 -2 -1 -0 1 2
-1 -0 1 2 2 1 0 -1 -3 -4 -4 -3 0 4 7 8 6 5 6 9 7 6 5 1 0 -0 -1 -1 -1 -1 -0 0 1 1 1 1 0 0 1 2 2 1 1 1 0 -1 -1 -1 -1 -0 0 1 3 6 9 8 6 4 2 1 0 -1 -2 -2 -1 -0 1 2 3
1 1 2 2 1 -1 -3 -4 -5 -4 -3 -0 3 4 4 4 3 3 3 3 2 1 1 2 1 0 -1 -1 -2 -1 -0 1 1 1 1 1 0 1 2 3 2 0 -0 -0 -1 -1 -1 -1 -1 -0 1 3 7 8 8 5 3 2 1 0 -1 -2 -2 -1 -0 1 2 4 3
2 2 2 1 -1 -3 -4 -5 -5 -3 -1 2 3 4 3 3 3 2 1 1 3 3 2 2 1 -0 -1 -2 -2 -1 0 2 2 1 1 0 0 1 3 4 2 1 0 -1 -1 -1 -1 0 0 0 2 5 6 5 3 1 1 1 0 -0 -1 -2 -1 -0 1 2 4 4 3
3 2 1 -1 -3 -4 -5 -5 -4 -1 2 4 4 4 4 4 2 1 2 5 6 4 2 1 -0 -1 -3 -3 -1 0 1 2 2 1 1 0 1 1 2 2 1 0 -0 -1 -1 -1 0 2 2 1 2 4 3 2 1 1 1 0 -1 -1 -1 -1 0 1 2 3 4 3 2
2 1 -1 -3 -3 -4 -5 -5 -0 4 7 6 5 5 5 3 2 3 5 6 4 2 1 0 -1 -2 -3 -2 -0 1 2 1 2 1 1 1 2 1 0 0 -0 -1 -1 -0 -0 1 2 3 3 3 2 2 1 1 0 0 -0 -1 -1 -1 -1 0 1 2 3 3 3 2 1
-0 -2 -3 -4 -4 -4 -2 1 6 10 11 8 6 5 4 3 4 5 6 3 1 0 -0 -1 -2 -2 -2 -1 1 2 2 1 1 1 1 1 1 1 -0 -0 -0 -0 -0 0 0 2 3 4 3 3 2 2 1 0 0 -0 -1 -1 -1 -1 1 2 2 3 3 2 1 0 0
-3 -3 -3 -3 -2 1 5 9 11 12 10 8 6 5 6 5 5 5 3 0 -0 -1 -1 -2 -1 -1 0 1 2 2 2 1 1 1 1 1 1 0 -0 -0 0 0 0 0 0 2 4 5 2 1 1 1 0 -0 -1 -1 -1 -1 -0 1 2 3 2 2 2 1 0 -0 -1
-2 -1 -1 0 2 4 6 9 9 8 6 5 6 6 6 5 3 1 0 -1 -1 -1 -1 -1 0 1 2 2 2 1 1 1 1 1 0 0 1 0 0 0 1 1 0 0 0 2 4 3 1 0 0 0 0 -1 -1 -1 -1 1 2 4 3 2 1 1 0 0 -0 -1 -1
2 2 3 4 4 4 5 7 6 5 4 4 5 4 2 1 -0 -1 -0 0 0 0 1 1 1 2 2 2 1 0 0 1 1 0 0 0 0 1 0 0 0 0 0 0 0 1 1 1 0 0 0 -0 -1 -1 -1 -1 1 3 4 4 3 2 0 -1 -2 -1 -1 -1 -1
4 4 4 4 5 6 6 6 4 3 2 2 1 0 -1 -1 -1 -0 1 1 1 2 2 2 2 1 1 0 0 0 0 1 1 1 1 1 0 0 0 -0 -0 -0 -1 -1 -2 -2 -2 -1 -1 -0 0 -0 -1 -1 0 1 3 4 4 3 2 1 -0 -2 -3 -2 -2 -1 -1
2 3 4 4 8 8 5 2 1 1 0 -1 -1 -1 -1 -1 1 2 2 3 2 2 1 1 1 0 0 0 1 1 1 1 1 1 1 1 1 0 -1 -1 -1 -1 -2 -3 -2 -1 1 1 1 0 -0 -1 -0 1 2 3 3 3 2 1 0 -0 0 -0 -1 -1 -2 -2 -2
3 4 7 9 9 6 2 -1 -1 -1 -1 -1 -1 -1 0 2 3 3 3 2 1 1 1 0 0 1 1 1 1 1 1 1 2 2 1 1 0 -0 -1 -1 -1 -2 -2 -1 3 6 6 5 2 1 0 0 2 3 4 3 2 1 -0 -1 -1 -0 1 1 1 0 -0 -1 -1
8 8 10 12 9 4 0 -1 -1 -1 -1 -1 -0 1 2 3 3 2 2 1 1 0 0 0 1 1 1 1 1 1 1 1 1 1 1 0 0 0 -0 -1 -2 -1 1 6 8 7 5 3 2 2 3 4 5 4 4 2 0 -1 -1 -1 -0 1 1 1 1 1 1 2 2
7 7 8 8 4 1 -1 -1 -1 -1 -1 0 1 2 2 2 1 1 0 -0 -1 -1 -1 0 1 1 0 0 0 1 1 1 1 1 1 0 0 -1 -2 -2 1 5 7 7 6 4 3 3 5 6 7 7 6 4 2 0 -1 -1 -1 -0 1 1 2 2 2 2 3 4 4
2 3 3 2 0 -1 -1 -1 -1 -0 0 1 1 1 1 0 -0 -1 -2 -2 -2 -1 -0 0 0 0 0 0 1 1 1 1 1 1 1 0 0 -0 1 3 6 6 5 4 3 4 5 8 10 10 8 5 3 1 0 -1 -1 -0 0 1 1 2 2 2 3 4 4 3 3
2 2 1 -0 -1 -1 -1 -1 -1 0 0 0 0 -0 -1 -1 -3 -3 -1 2 2 2 1 1 0 0 0 0 0 0 1 2 2 0 -0 1 3 4 5 6 6 5 5 6 7 8 10 10 9 7 4 2 1 0 -0 0 1 1 2 2 3 3 3 3 3 3 2 2 2
3 3 2 -0 -1 -1 -0 0 0 0 0 0 -0 -1 -2 -3 -3 -0 2 4 3 1 1 0 0 0 -0 -1 -0 0 0 1 -0 0 2 6 6 7 8 9 9 9 9 10 10 9 8 7 5 3 2 0 0 0 1 2 2 3 3 3 3 4 3 3 2 1 1 0 1
2 2 2 0 -0 0 2 4 3 2 1 0 0 0 1 2 4 4 4 2 1 1 1 0 -0 -1 -1 -0 0 1 2 5 6 7 8 10 11 12 13 13 12 11 10 9 7 6 5 4 3 1 1 0 1 2 3 4 4 4 4 3 3 2 2 1 1 0 0 0 0
-1 -1 -0 1 2 3 4 5 4 2 2 2 5 9 12 11 7 4 2 1 1 1 0 -0 0 1 2 4 6 8 10 12 14 15 15 15 15 14 13 11 8 7 6 6 4 4 3 2 2 1 1 2 3 4 4 4 4 3 3 2 1 1 0 0 0 0 0 1 1
-1 -1 0 2 3 3 3 3 2 2 3 6 13 17 16 9 4 2 2 2 1 -0 -1 -1 3 9 15 19 19 20 20 18 17 16 14 13 12 10 9 7 6 5 4 4 3 2 3 3 3 3 3 3 3 3 3 3 2 2 1 1 0 -0 -1 -0 -1 -0 -0 0 1
-0 1 2 4 4 2 1 1 2 4 8 13 17 16 10 3 2 4 6 5 2 -1 -3 -2 6 13 19 21 19 17 15 12 10 8 7 6 6 5 4 3 2 2 2 3 3 3 4 4 4 3 3 2 1 1 1 1 1 1 0 0 -1 -1 -1 -1 -1 -1 -1 -0 0
1 2 3 5 3 2 1 3 7 10 14 15 12 8 3 0 4 8 10 7 2 -1 -3 -2 1 4 6 6 6 4 3 2 1 0 0 -0 0 1 1 0 -0 0 1 3 3 3 3 3 2 1 1 1 0 -0 0 0 0 -0 -0 -0 -1 -1 -1 -1 -1 -1 -1 -1 -1
3 4 4 4 4 5 6 9 12 12 11 8 5 2 1 1 5 8 9 7 3 1 1 1 0 0 -0 0 0 -0 -0 -0 0 0 0 0 -0 0 1 1 -0 -0 0 1 1 1 1 2 1 1 0 -0 -0 -0 -0 0 0 -0 -0 -0 -1 -1 -2 -1 -1 -1 -1 -1 -1
11 14 14 14 18 21 23 23 21 16 11 6 3 1 1 2 6 8 9 7 5 4 4 3 1 -0 -1 -1 -1 -1 -2 -1 -1 -1 -0 -0 -0 0 0 1 -0 -1 -1 0 0 1 1 1 1 1 -0 -0 -1 -0 0 1 1 0 -0 -0 -0 -1 -2 -2 -1 -1 -1 -2 -1
21 29 32 32 33 34 33 33 31 28 24 19 14 9 7 6 8 9 8 7 7 6 6 4 1 -1 -3 -3 -2 -1 -1 -0 0 0 1 1 1 1 1 1 0 -0 -0 0 1 1 1 1 2 1 1 0 -0 -0 0 1 2 1 0 -0 -0 -1 -1 -3 -3 -2 -1 -1 -1
Height
5703 5705 5707 5708 5708 5709 5709 5710 5711 5712 5714 5716 5716 5716 5717 5718 5719 5719 5720 5720 5721 5721 5721 5721 5721 5721 5722 5722 5722 5723 5723 5724 5724 5725 5725 5725 5725 5724 5724 5724 5724 5723 5723 5723 5724 5724 5724 5724 5724 5723 5723 5722 5722 5721 5721 5720 5719 5718 5718 5717 5716 5716 5715 5714 5713 5712 5712 5711 5710
5698 5701 5702 5702 5702 5703 5704 5705 5706 5707 5709 5711 5712 5713 5714 5714 5715 5715 5716 5716 5716 5717 5717 5717 5718 5718 5718 5719 5719 5719 5720 5721 5721 5721 5722 5722 5721 5721 5721 5721 5721 5720 5720 5721 5721 5721 5721 5721 5721 5720 5720 5720 5719 5718 5717 5716 5716 5715 5715 5714 5713 5712 5712 5711 5710 5710 5709 5708 5707
5694 5696 5696 5697 5697 5698 5699 5700 5701 5703 5704 5706 5708 5711 5712 5711 5712 5711 5711 5712 5713 5713 5714 5714 5714 5714 5715 5715 5716 5716 5716 5717 5718 5718 5718 5719 5719 5718 5718 5718 5718 5718 5718 5718 5718 5718 5717 5717 5717 5716 5716 5716 5716 5715 5715 5714 5713 5712 5711 5711 5710 5709 5709 5708 5707 5706 5706 5705 5703
5689 5690 5691 5692 5692 5693 5694 5695 5696 5698 5700 5701 5705 5707 5708 5709 5710 5709 5709 5709 5710 5710 5710 5711 5711 5711 5711 5712 5712 5713 5713 5714 5715 5715 5715 5715 5715 5715 5715 5715 5715 5715 5715 5715 5715 5714 5714 5714 5713 5713 5713 5712 5712 5711 5711 5710 5710 5709 5708 5708 5707 5706 5706 5705 5704 5703 5702 5701 5700
5684 5685 5686 5687 5687 5688 5689 5690 5691 5693 5695 5697 5700 5702 5702 5703 5705 5706 5706 5706 5707 5707 5708 5708 5708 5708 5708 5708 5709 5709 5710 5711 5712 5712 5712 5712 5712 5712 5712 5712 5712 5712 5712 5712 5711 5711 5711 5711 5711 5710 5710 5710 5709 5709 5708 5707 5707 5706 5705 5705 5704 5703 5702 5702 5701 5700 5699 5698 5696
5679 5681 5681 5682 5682 5683 5684 5685 5686 5688 5690 5693 5695 5696 5698 5699 5700 5701 5702 5705 5704 5704 5705 5705 5705 5705 5705 5706 5706 5706 5707 5708 5709 5709 5709 5709 5709 5709 5709 5709 5709 5709 5709 5709 5709 5708 5708 5708 5708 5708 5707 5707 5707 5706 5706 5705 5704 5704 5702 5701 5701 5700 5700 5699 5698 5697 5696 5694 5693
5674 5676 5676 5677 5677 5678 5680 5681 5682 5684 5686 5688 5691 5693 5695 5696 5697 5698 5699 5700 5701 5701 5701 5701 5701 5702 5702 5702 5703 5704 5704 5705 5706 5706 5706 5706 5706 5706 5706 5706 5706 5706 5706 5706 5706 5706 5706 5706 5705 5705 5705 5705 5704 5704 5703 5702 5702 5701 5700 5699 5698 5697 5697 5696 5695 5693 5692 5691 5690
5669 5671 5671 5672 5673 5675 5676 5677 5678 5680 5682 5685 5687 5689 5691 5692 5693 5694 5696 5697 5698 5698 5698 5698 5698 5699 5700 5700 5700 5701 5701 5702 5703 5703 5703 5703 5703 5703 5703 5704 5704 5704 5704 5704 5703 5703 5703 5703 5703 5703 5702 5702 5701 5701 5700 5700 5699 5698 5697 5696 5695 5695 5694 5692 5691 5690 5689 5687 5686
5664 5666 5667 5668 5669 5671 5672 5673 5674 5676 5678 5681 5683 5685 5686 5688 5689 5691 5692 5694 5694 5695 5695 5695 5695 5696 5697 5697 5697 5698 5699 5699 5700 5700 5700 5700 5700 5700 5701 5701 5701 5701 5701 5701 5701 5701 5700 5700 5700 5700 5700 5699 5699 5698 5697 5697 5696 5695 5694 5693 5692 5691 5691 5689 5688 5687 5686 5684 5683
5659 5661 5662 5664 5665 5666 5667 5669 5671 5672 5675 5677 5679 5681 5682 5684 5686 5688 5689 5690 5691 5691 5691 5691 5692 5694 5694 5694 5694 5695 5696 5696 5696 5697 5697 5697 5697 5698 5698 5698 5698 5698 5698 5698 5698 5698 5698 5698 5697 5697 5696 5696 5696 5695 5695 5694 5693 5692 5691 5690 5689 5689 5687 5686 5685 5684 5682 5681 5680
5654 5656 5657 5659 5660 5662 5663 5665 5666 5668 5671 5672 5674 5676 5678 5680 5683 5685 5686 5687 5688 5688 5689 5688 5689 5690 5691 5691 5691 5692 5693 5693 5694 5694 5694 5695 5695 5695 5696 5696 5696 5696 5695 5695 5696 5696 5695 5695 5694 5694 5693 5693 5693 5693 5692 5690 5690 5689 5688 5687 5686 5686 5684 5683 5682 5681 5679 5678 5676
5649 5651 5653 5655 5656 5658 5660 5661 5663 5665 5666 5668 5670 5672 5675 5677 5680 5681 5683 5683 5684 5684 5685 5686 5686 5686 5686 5688 5688 5689 5690 5690 5691 5691 5691 5692 5692 5692 5693 5693 5693 5693 5692 5692 5693 5693 5692 5692 5691 5691 5691 5690 5690 5689 5688 5687 5686 5686 5685 5684 5683 5682 5681 5680 5679 5677 5676 5674 5673
5645 5647 5649 5651 5652 5654 5656 5657 5659 5661 5663 5664 5666 5669 5671 5674 5676 5678 5679 5680 5680 5681 5682 5683 5682 5682 5683 5685 5686 5686 5687 5687 5688 5688 5689 5689 5689 5690 5690 5690 5690 5690 5690 5690 5690 5690 5690 5689 5688 5688 5687 5687 5686 5686 5685 5684 5683 5683 5682 5681 5680 5679 5678 5677 5675 5674 5672 5671 5669
5641 5643 5645 5647 5649 5650 5652 5654 5656 5657 5659 5661 5663 5666 5668 5671 5673 5674 5675 5676 5677 5679 5681 5681 5679 5679 5680 5681 5682 5683 5684 5684 5685 5686 5686 5686 5686 5687 5687 5686 5687 5687 5687 5687 5687 5686 5686 5686 5685 5685 5684 5684 5683 5682 5682 5681 5680 5680 5679 5678 5677 5676 5675 5673 5672 5671 5669 5667 5666
5637 5639 5641 5643 5645 5646 5648 5650 5652 5654 5656 5658 5660 5662 5665 5667 5668 5670 5672 5674 5675 5676 5678 5677 5676 5676 5678 5679 5680 5680 5681 5681 5682 5683 5683 5683 5684 5684 5684 5684 5684 5684 5684 5684 5683 5683 5683 5682 5682 5681 5681 5680 5680 5679 5679 5678 5678 5677 5676 5675 5674 5673 5671 5670 5669 5667 5666 5664 5663
5634 5636 5637 5639 5641 5642 5644 5646 5648 5650 5652 5654 5657 5659 5661 5663 5664 5666 5669 5671 5672 5673 5674 5673 5674 5675 5676 5676 5676 5677 5678 5679 5680 5680 5680 5681 5681 5681 5681 5681 5681 5681 5681 5681 5681 5680 5680 5679 5679 5678 5678 5677 5677 5676 5676 5676 5676 5675 5673 5672 5671 5670 5668 5666 5665 5664 5662 5661 5659
5630 5632 5634 5636 5637 5639 5641 5643 5645 5647 5649 5652 5654 5656 5657 5659 5661 5663 5665 5667 5669 5670 5670 5671 5672 5672 5673 5673 5674 5675 5676 5676 5677 5677 5678 5678 5678 5678 5678 5678 5679 5679 5679 5678 5678 5677 5677 5676 5676 5676 5675 5674 5674 5673 5673 5673 5672 5671 5670 5669 5668 5666 5665 5663 5662 5660 5659 5657 5656
5627 5628 5630 5632 5633 5635 5637 5640 5642 5644 5647 5649 5651 5653 5654 5656 5658 5660 5662 5664 5666 5666 5667 5669 5669 5670 5670 5671 5671 5672 5673 5674 5674 5675 5675 5675 5675 5676 5676 5676 5676 5676 5676 5676 5675 5675 5674 5674 5673 5673 5672 5672 5671 5670 5670 5669 5669 5668 5667 5666 5664 5662 5661 5660 5658 5657 5656 5654 5652
5623 5625 5627 5628 5630 5632 5634 5637 5639 5642 5645 5646 5648 5650 5652 5654 5656 5658 5660 5662 5663 5664 5665 5666 5666 5667 5667 5668 5669 5670 5671 5671 5671 5672 5672 5672 5673 5673 5674 5674 5673 5673 5673 5673 5672 5672 5671 5671 5671 5670 5670 5669 5668 5667 5667 5666 5665 5664 5663 5662 5660 5659 5658 5656 5655 5653 5652 5650 5649
5620 5622 5623 5625 5627 5629 5631 5634 5637 5640 5642 5644 5646 5648 5650 5652 5654 5656 5658 5659 5661 5661 5662 5663 5663 5664 5665 5666 5666 5667 5668 5669 5669 5669 5670 5670 5671 5671 5671 5671 5671 5671 5671 5670 5670 5669 5669 5668 5667 5667 5667 5666 5666 5665 5664 5663 5662 5661 5660 5658 5657 5656 5654 5653 5651 5650 5648 5647 5645
5617 5619 5621 5622 5625 5627 5630 5632 5636 5638 5640 5641 5644 5646 5648 5650 5652 5654 5655 5656 5658 5659 5659 5660 5661 5662 5662 5663 5664 5665 5666 5666 5666 5667 5668 5668 5668 5669 5669 5669 5668 5668 5668 5667 5667 5666 5666 5665 5665 5665 5664 5663 5663 5662 5661 5660 5659 5657 5656 5655 5654 5652 5651 5650 5648 5646 5645 5643 5641
5615 5617 5619 5621 5623 5625 5628 5631 5634 5636 5638 5639 5642 5644 5646 5648 5650 5651 5652 5654 5655 5656 5656 5657 5658 5659 5660 5661 5662 5663 5663 5664 5665 5665 5666 5666 5666 5666 5666 5666 5666 5665 5665 5665 5664 5663 5663 5663 5662 5662 5661 5661 5660 5659 5658 5656 5655 5654 5653 5651 5650 5649 5647 5646 5644 5643 5641 5639 5637
5613 5615 5617 5619 5621 5624 5626 5629 5631 5634 5636 5638 5640 5642 5644 5645 5647 5648 5650 5651 5652 5653 5654 5656 5656 5657 5658 5659 5660 5661 5661 5662 5663 5663 5663 5664 5664 5664 5663 5663 5663 5662 5662 5662 5661 5661 5661 5660 5660 5659 5658 5658 5657 5656 5655 5653 5652 5651 5650 5648 5647 5646 5644 5642 5641 5639 5637 5635 5633
5611 5613 5615 5617 5619 5621 5624 5626 5629 5632 5634 5636 5638 5640 5642 5643 5645 5646 5647 5649 5650 5651 5652 5654 5655 5656 5656 5657 5658 5659 5659 5660 5661 5661 5661 5661 5661 5661 5661 5660 5660 5660 5659 5659 5659 5658 5658 5658 5657 5656 5656 5655 5654 5653 5651 5650 5649 5648 5646 5645 5644 5642 5640 5638 5637 5635 5633 5631 5629
5609 5611 5613 5616 5618 5621 5624 5626 5628 5631 5633 5634 5636 5638 5639 5641 5643 5644 5646 5647 5649 5650 5651 5652 5653 5654 5655 5655 5656 5657 5658 5658 5658 5659 5659 5658 5658 5658 5658 5658 5657 5657 5657 5656 5656 5656 5655 5655 5654 5654 5653 5652 5651 5650 5648 5647 5646 5644 5643 5641 5640 5638 5636 5634 5633 5631 5629 5627 5626
5607 5610 5612 5615 5617 5621 5623 5625 5627 5629 5631 5633 5635 5636 5638 5640 5641 5643 5644 5646 5647 5648 5649 5650 5651 5652 5653 5654 5655 5655 5656 5656 5656 5656 5656 5656 5656 5656 5656 5655 5655 5654 5654 5653 5653 5653 5653 5652 5651 5651 5650 5649 5648 5646 5645 5644 5642 5641 5640 5638 5636 5634 5632 5631 5629 5627 5626 5624 5622
5607 5610 5612 5615 5618 5620 5622 5624 5626 5628 5630 5631 5633 5635 5636 5638 5640 5641 5643 5644 5646 5647 5648 5649 5650 5651 5651 5652 5653 5653 5653 5653 5654 5654 5654 5654 5654 5653 5653 5652 5652 5651 5651 5651 5651 5651 5651 5650 5649 5648 5646 5645 5644 5643 5642 5640 5639 5637 5636 5634 5632 5631 5629 5627 5626 5624 5621 5620 5618
5609 5610 5613 5615 5618 5620 5621 5623 5625 5627 5628 5630 5632 5634 5635 5637 5639 5640 5642 5643 5644 5646 5646 5647 5648 5649 5650 5650 5651 5651 5651 5651 5651 5651 5651 5651 5651 5651 5650 5650 5649 5649 5649 5649 5649 5649 5648 5647 5646 5644 5643 5642 5641 5640 5638 5637 5635 5634 5632 5631 5629 5627 5626 5624 5622 5620 5618 5616 5614
5610 5611 5613 5615 5616 5618 5620 5622 5624 5626 5627 5629 5631 5633 5634 5636 5638 5639 5641 5642 5643 5644 5645 5646 5646 5647 5647 5648 5648 5648 5649 5649 5649 5649 5649 5648 5648 5648 5647 5647 5647 5646 5647 5647 5647 5646 5645 5644 5642 5641 5640 5639 5637 5636 5635 5633 5632 5630 5629 5627 5626 5624 5622 5620 5618 5616 5614 5612 5610
5609 5610 5612 5614 5616 5617 5619 5621 5623 5625 5626 5628 5630 5632 5634 5635 5637 5638 5640 5641 5642 5642 5643 5644 5644 5645 5645 5646 5646 5646 5646 5646 5646 5646 5646 5646 5645 5645 5645 5645 5645 5645 5645 5645 5644 5643 5641 5640 5639 5638 5637 5636 5634 5632 5631 5630 5628 5626 5625 5623 5622 5620 5618 5616 5614 5612 5610 5608 5606
5608 5610 5611 5613 5615 5617 5619 5621 5622 5624 5626 5628 5630 5631 5633 5634 5636 5637 5638 5639 5640 5641 5641 5642 5642 5643 5643 5644 5644 5644 5644 5644 5644 5644 5643 5643 5643 5643 5643 5644 5644 5643 5643 5642 5641 5640 5639 5638 5637 5635 5634 5632 5630 5629 5627 5626 5624 5623 5621 5620 5618 5616 5614 5612 5610 5608 5606 5604 5601
5607 5609 5611 5613 5615 5616 5618 5620 5622 5624 5626 5627 5629 5631 5632 5633 5635 5636 5636 5638 5639 5639 5640 5640 5641 5641 5641 5642 5642 5642 5642 5642 5642 5642 5641 5641 5641 5642 5642 5641 5641 5641 5640 5639 5638 5637 5636 5635 5633 5632 5630 5628 5627 5625 5624 5622 5621 5619 5617 5616 5614 5612 5610 5608 5606 5604 5602 5600 5597
5607 5609 5611 5613 5615 5616 5618 5620 5621 5623 5625 5626 5628 5629 5631 5632 5633 5635 5636 5637 5637 5638 5638 5639 5640 5640 5640 5640 5640 5640 5640 5640 5640 5640 5640 5640 5640 5640 5640 5639 5639 5638 5637 5636 5635 5634 5633 5631 5630 5628 5626 5625 5623 5622 5621 5619 5617 5616 5614 5612 5610 5608 5606 5604 5602 5600 5598 5596 5593
5607 5609 5611 5613 5615 5616 5617 5619 5621 5622 5623 5625 5626 5628 5629 5631 5633 5635 5635 5636 5636 5636 5637 5637 5638 5638 5638 5638 5638 5639 5639 5639 5639 5639 5639 5639 5638 5638 5638 5637 5636 5635 5634 5633 5632 5631 5629 5628 5626 5625 5623 5621 5620 5618 5617 5615 5613 5612 5610 5608 5606 5604 5602 5600 5598 5596 5594 5591 5589
5607 5609 5611 5612 5614 5615 5617 5618 5620 5621 5622 5623 5625 5627 5629 5632 5633 5633 5633 5634 5634 5635 5636 5636 5636 5636 5636 5636 5637 5637 5637 5638 5637 5637 5637 5637 5636 5636 5635 5634 5633 5632 5631 5630 5628 5627 5626 5624 5623 5621 5620 5618 5616 5615 5613 5611 5610 5608 5606 5604 5602 5600 5598 5596 5594 5592 5590 5587 5585
5607 5609 5611 5612 5613 5615 5616 5617 5619 5620 5621 5622 5625 5627 5630 5631 5631 5631 5631 5632 5633 5633 5634 5635 5636 5636 5636 5636 5636 5636 5636 5636 5636 5635 5635 5634 5633 5633 5632 5631 5630 5629 5627 5626 5625 5624 5622 5621 5620 5618 5616 5615 5613 5611 5610 5608 5606 5604 5602 5600 5598 5596 5594 5592 5590 5587 5585 5583 5581
5607 5609 5611 5612 5613 5614 5616 5617 5618 5619 5621 5623 5626 5627 5628 5629 5629 5629 5630 5631 5632 5632 5633 5634 5635 5635 5635 5635 5635 5634 5634 5633 5633 5632 5632 5631 5630 5630 5629 5628 5626 5626 5624 5623 5622 5621 5619 5618 5616 5614 5612 5611 5609 5608 5606 5604 5602 5600 5598 5596 5594 5592 5590 5587 5585 5583 5581 5578 5576
5607 5608 5610 5611 5612 5613 5615 5616 5618 5620 5622 5624 5625 5626 5626 5627 5627 5629 5630 5630 5630 5631 5631 5632 5632 5633 5633 5633 5632 5632 5631 5631 5630 5629 5628 5628 5627 5626 5625 5624 5623 5622 5621 5620 5619 5617 5616 5614 5612 5611 5609 5607 5606 5604 5602 5601 5598 5596 5594 5592 5590 5587 5585 5583 5581 5578 5576 5574 5572
5606 5607 5609 5610 5612 5614 5616 5617 5619 5621 5622 5622 5623 5624 5625 5626 5627 5628 5629 5629 5629 5629 5629 5630 5630 5630 5630 5630 5630 5629 5629 5628 5627 5626 5626 5625 5624 5623 5622 5621 5620 5619 5618 5617 5615 5614 5613 5611 5610 5608 5606 5604 5602 5600 5598 5596 5595 5592 5590 5588 5586 5583 5581 5579 5577 5574 5572 5570 5567
5607 5608 5610 5612 5614 5616 5618 5619 5621 5621 5622 5622 5623 5623 5624 5625 5626 5626 5627 5627 5627 5627 5627 5627 5627 5627 5627 5627 5627 5626 5626 5626 5625 5624 5623 5622 5621 5621 5619 5618 5617 5616 5615 5614 5612 5611 5610 5608 5606 5604 5602 5600 5598 5596 5595 5593 5591 5589 5586 5584 5582 5579 5577 5574 5572 5570 5568 5565 5563
5610 5612 5614 5615 5616 5616 5617 5618 5619 5620 5621 5622 5622 5623 5623 5624 5624 5624 5624 5624 5624 5624 5625 5625 5625 5624 5624 5624 5624 5624 5623 5623 5622 5621 5621 5619 5619 5618 5616 5616 5614 5613 5612 5611 5609 5608 5606 5605 5603 5601 5599 5596 5595 5593 5591 5589 5587 5585 5582 5580 5578 5575 5573 5570 5568 5566 5564 5561 5559